Flag for Australia Weather past 2 weeks in Uluru, Northern Territory, Australia

Now
81 °F

Clear.


Feels Like: 79 °F
Forecast: 80 / 103 °F
Wind: 10 mph from South

Location: Ayers Rock

Current Time: Mar 4, 2015 at 6:22:51 AM

Latest Report: Mar 4, 2015 at 5:30 AM


Visibility: N/A

Pressure: 29.92 "Hg

Humidity: 26%

Dew point: 43 °F

Location of UluruLocation

Historic Weather in Uluru — Graph

°F

Uluru temperature yesterday

Maximum temperature yesterday: 106 °F (at 2:30 PM)
Minimum temperature yesterday: 81 °F (at 6:30 AM)
Average temperature yesterday: 95 °F

Past Weeks' High & Low Weather Summary

 TemperatureHumidityPressure
High106 °F (Feb 26, 3:30 PM)88% (Feb 23, 12:30 AM)30.07 "Hg (Feb 23, 12:30 AM)
Low70 °F (Feb 23, 12:30 AM)9% (Feb 19, 11:30 AM)29.65 "Hg (Feb 27, 4:30 PM)
Average89 °F28%29.85 "Hg
* Reported Feb 17 4:30 AM — Mar 4 4:30 AM, Uluru, Weather by CustomWeather, © 2015

Note: Actual official high and low records may vary slightly from our data, if they occured in-between our weather recording intervals... More about our weather records

Advertising

Uluru weather history for previous 24 hours

 ConditionsComfort  
Time TempWeatherWind HumidityBarometerVisibility
4:30 AM
Wed, Mar 4
81 °FClear.10 mph26%29.92 "HgN/A
3:30 AM86 °FClear.12 mph20%29.89 "HgN/A
2:30 AM88 °FClear.12 mph18%29.89 "HgN/A
1:30 AM88 °FClear.10 mph18%29.92 "HgN/A
12:30 AM91 °FClear.16 mph15%29.92 "HgN/A
11:30 PM
Tue, Mar 3
93 °FClear.9 mph19%29.89 "HgN/A
10:30 PM95 °FClear.8 mph18%29.86 "HgN/A
9:30 PM97 °FClear.9 mph17%29.86 "HgN/A
8:30 PM97 °FClear.6 mph17%29.83 "HgN/A
7:30 PM102 °FClear.9 mph14%29.80 "HgN/A
6:30 PM104 °FSunny.12 mph12%29.80 "HgN/A
5:30 PM106 °FSunny.9 mph13%29.80 "HgN/A
4:30 PM106 °FSunny.9 mph13%29.80 "HgN/A
3:30 PM106 °FSunny.13 mph12%29.80 "HgN/A
2:30 PM106 °FSunny.14 mph13%29.83 "HgN/A
1:30 PM102 °FSunny.13 mph14%29.86 "HgN/A
12:30 PM100 °FSunny.14 mph16%29.86 "HgN/A
11:30 AM99 °FSunny.21 mph16%29.89 "HgN/A
10:30 AM97 °FSunny.22 mph17%29.89 "HgN/A
9:30 AM95 °FSunny.21 mph19%29.89 "HgN/A
8:30 AM86 °FSunny.14 mph24%29.89 "HgN/A
7:30 AM81 °FSunny.12 mph26%29.89 "HgN/A
6:30 AM81 °FSunny.13 mph26%29.86 "HgN/A
Weather by CustomWeather, © 2015

See weather overviewHow to use our weather pages